Preview of NWS' New Version of Forecast
This preview is not operational and should not be used for support decisions.

Regional Weather Roundup (RWR)

Issued by National Weather Service (NWS)

                            
000
ASUS45 KABQ 170110
RWRNM 
NEW MEXICO REGIONAL WEATHER ROUNDUP
NATIONAL WEATHER SERVICE ALBUQUERQUE NM
600 PM MST SAT FEB 16 2019

NOTE: "FAIR" MEANS FEW OR NO CLOUDS BELOW 12,000 FEET AGL WITH NO
       SIGNIFICANT WEATHER OR OBSTRUCTIONS TO VISION.

      THIS PRODUCT IS RELEASED AS TWO VERSIONS.  ONE VERSION NEAR
      THE TOP OF THE HOUR CONTAINING PRELIMINARY DATA FROM ALBUQUERQUE
      AND OTHER STATIONS.  A FINAL VERSION WITH ADDITIONAL DATA IS 
      ISSUED ABOUT 10 MINUTES AFTER THE HOUR.
 
NMZ501-503-504-510>518-170200-
NORTHWEST PLATEAU/NORTHCENTRAL MOUNTAINS
  
CITY           SKY/WX    TMP DP  RH WIND       PRES   REMARKS
FARMINGTON     FAIR      31  21  66 N12       29.78R WCI  22          
LOS ALAMOS     MOCLDY    30  12  46 SW16G30   29.72R WCI  19          
SANTA FE       FAIR      33  13  43 W13       29.72R WCI  24          
TAOS           FAIR      27  17  66 W16       29.72R WCI  15          
ANGEL FIRE       N/A     21  11  64 W14G24    29.68R WCI   8          

$$
NMZ402-403-502-505>509-170200-
WESTCENTRAL MOUNTAINS/SOUTHWEST MOUNTAINS
  
CITY           SKY/WX    TMP DP  RH WIND       PRES   REMARKS
GALLUP         FAIR      33  14  45 W9        29.79S WCI  25          
GRANTS         FAIR      32  18  55 NW15G24   29.80R WCI  22          
SILVER CITY    FAIR      41  24  51 W20       29.84S                  

$$
NMZ407-409-411-412-170200-
SOUTHERN DESERTS
  
CITY           SKY/WX    TMP DP  RH WIND       PRES   REMARKS
DEMING         FAIR      50  24  36 W23G30    29.80S                  
LAS CRUCES     FAIR      54  23  30 W25G33    29.78R                  
HOLLOMAN AFB   MOCLDY    53  18  25 SW15      29.78R                  
ALAMOGORDO     FAIR      54  16  22 MISG      29.78R HAZE             
T OR C         FAIR      49  14  24 W15G23    29.77R                  

$$
NMZ519>523-170200-
CENTRAL VALLEYS/CENTRAL HIGHLANDS
  
CITY           SKY/WX    TMP DP  RH WIND       PRES   REMARKS
ALBUQUERQUE    FAIR      41  13  31 W21G35    29.75R                  
DOUBLE EAGLE   MOCLDY    37  10  32 W25       29.76R WCI  26          
MORIARTY ARPT  FAIR      38   8  28 W21G31    29.73R WCI  28          
CLINES CORNERS FAIR      32   6  33 NW25G32   29.70R WCI  19          
BELEN          FAIR      40  18  41 W21G26    29.78R WCI  30          
SOCORRO        FAIR      42  24  47 W18G26    29.78R                  

$$
NMZ524>526-539-540-170200-
SOUTHCENTRAL MOUNTAINS
  
CITY           SKY/WX    TMP DP  RH WIND       PRES   REMARKS
RUIDOSO        NOT AVBL                                               

$$
NMZ527>531-170200-
NORTHEAST HIGHLANDS/NORTHEAST PLAINS
  
CITY           SKY/WX    TMP DP  RH WIND       PRES   REMARKS
LAS VEGAS      FAIR      32   6  33 W18G25    29.67R WCI  20          
RATON          FAIR      33   4  29 W18       29.62R WCI  22          
CLAYTON        FAIR      42   3  19 W15G26    29.57R                  

$$
NMZ532>537-170200-
EASTCENTRAL PLAINS
  
CITY           SKY/WX    TMP DP  RH WIND       PRES   REMARKS
SANTA ROSA     FAIR      45  10  24 W24G36    29.67R                  
TUCUMCARI      FAIR      50  16  25 W30G40    29.61R                  
CANNON AFB     FAIR      50  18  28 NW23G30   29.63R                  
CLOVIS AIRPORT FAIR      51  18  27 NW24G37   29.63R                  

$$
NMZ028-029-538-170200-
SOUTHEAST PLAINS
  
CITY           SKY/WX    TMP DP  RH WIND       PRES   REMARKS
ROSWELL        FAIR      60  15  17 W18       29.64R BLWGDUST         
ARTESIA        FAIR      61  14  16 W23G29    29.67R                  
CARLSBAD       FAIR      63  21  20 W26G35    29.65R                  
HOBBS          CLEAR     63   9  12 W26G37    29.64R                  


$$